Location: Great Chart
(51.1333°N, 0.8333°E)
Time: 10:31:10
(UTC+00:00)

Cosmos 1606 - Pass Details

Date: 19 September 2020
Orbit: 504 x 526 km, 82.5° (Epoch: 30 October)

Event Time Altitude Azimuth Distance (km) Brightness Sun altitude
Exits shadow 03:34:20 24° 313° (NW) 1,078 4.1 -19.5°
Drops below altitude 10° 03:36:45 10° 349° (N) 1,733 5.6 -19.1°
Sets 03:39:08 0° 2° (N) 2,622 6.7 -18.8°
